NORTHEAST SUFFOLK  -  Rip Current Statement Rip Current Statement        NORTHERN NASSAU  -  Rip Current Statement Rip Current Statement        NORTHERN QUEENS  -  Rip Current Statement Rip Current Statement        NORTHWEST SUFFOLK  -  Rip Current Statement Rip Current Statement        SOUTHEAST SUFFOLK  -  Rip Current Statement Rip Current Statement        SOUTHERN NASSAU  -  Rip Current Statement Rip Current Statement        SOUTHERN QUEENS  -  Rip Current Statement Rip Current Statement        SOUTHWEST SUFFOLK  -  Rip Current Statement Rip Current Statement      

Active alerts

Northern Queens
  Details for Northern Queens Rip Current Statement
Southern Queens
  Details for Southern Queens Rip Current Statement
Northern Nassau
  Details for Northern Nassau Rip Current Statement
Southern Nassau
  Details for Southern Nassau Rip Current Statement
Northwest Suffolk
  Details for Northwest Suffolk Rip Current Statement
Southwest Suffolk
  Details for Southwest Suffolk Rip Current Statement
Northeast Suffolk
  Details for Northeast Suffolk Rip Current Statement
Southeast Suffolk
  Details for Southeast Suffolk Rip Current Statement


WXM80 ListenWXM80 Stop

You find our weather info also at:

UK Metoffice

WeatherCloud

Weather Underground

Northeastern Weather Network

AWEKAS

Citizen Weather Observer Program (CWOP)

HAMweather, WeatherForYou, PWS Weather


Weather Underground History page Text

Daily Summary for April 7, 2016 Units:  English    Metric   Both
« Previous Day
Next Day »
Daily Weekly Monthly Yearly Custom
  High: Low: Average:
Temperature: 59.6 °F 46.0 °F 53.6 °F
Dew Point: 55.8 °F 42.6 °F 49.6 °F
Humidity: 95 % 78 % 86 %
Wind Speed: 14.2 mph 0.1 mph 5.7 mph
Wind Gust: 26.5 mph - -
Wind:- - South
Pressure: 29.97 in 29.35 in -
Precipitation: 0.19 in    
Historical Graphs
 
 
Tabular Data for April 7, 2016
Time Temperature Dew Point Pressure Wind Wind Speed Wind Gust Humidity Rainfall Rate (Hourly)
00:03 46.0 °F 42.6 °F 29.97 in SSE 1.4 mph 3.5 mph 88 % 0.00 in
00:08 46.1 °F 42.7 °F 29.96 in South 1.7 mph 3.5 mph 88 % 0.00 in
00:13 46.3 °F 43.2 °F 29.96 in SSW 1.9 mph 5.8 mph 89 % 0.00 in
00:19 46.4 °F 43.3 °F 29.95 in SSW 1.0 mph 3.5 mph 89 % 0.00 in
00:24 46.4 °F 43.0 °F 29.95 in SW 3.4 mph 5.8 mph 88 % 0.00 in
00:34 46.5 °F 43.1 °F 29.96 in South 0.8 mph 4.6 mph 88 % 0.00 in
00:39 46.6 °F 43.2 °F 29.95 in South 1.0 mph 6.0 mph 88 % 0.00 in
00:44 46.7 °F 43.3 °F 29.95 in SSW 3.5 mph 6.0 mph 88 % 0.00 in
00:54 46.7 °F 43.6 °F 29.94 in South 1.1 mph 5.8 mph 89 % 0.00 in
01:05 47.0 °F 43.9 °F 29.93 in South 2.7 mph 3.5 mph 89 % 0.00 in
01:10 47.1 °F 44.0 °F 29.93 in South 2.0 mph 8.1 mph 89 % 0.00 in
01:15 47.3 °F 44.2 °F 29.93 in SW 2.6 mph 4.6 mph 89 % 0.00 in
01:20 47.5 °F 44.4 °F 29.93 in South 2.8 mph 6.9 mph 89 % 0.00 in
01:25 47.7 °F 44.3 °F 29.92 in SSW 2.6 mph 3.5 mph 88 % 0.00 in
01:30 47.9 °F 44.5 °F 29.92 in South 3.4 mph 6.9 mph 88 % 0.00 in
01:35 48.2 °F 44.8 °F 29.92 in South 3.0 mph 5.8 mph 88 % 0.00 in
01:40 48.5 °F 45.1 °F 29.92 in SSW 2.3 mph 5.0 mph 88 % 0.00 in
01:45 48.7 °F 45.3 °F 29.92 in SW 4.3 mph 5.8 mph 88 % 0.00 in
01:50 48.9 °F 45.2 °F 29.91 in SSW 4.8 mph 6.9 mph 87 % 0.00 in
01:56 49.2 °F 45.5 °F 29.91 in SSW 2.4 mph 10.4 mph 87 % 0.00 in
02:01 49.4 °F 45.7 °F 29.90 in South 6.3 mph 10.0 mph 87 % 0.00 in
02:06 49.6 °F 45.6 °F 29.90 in SSW 4.8 mph 9.2 mph 86 % 0.00 in
02:11 49.8 °F 45.8 °F 29.90 in SSW 3.4 mph 7.0 mph 86 % 0.00 in
02:16 50.0 °F 46.0 °F 29.89 in South 7.3 mph 14.0 mph 86 % 0.00 in
02:21 50.1 °F 46.1 °F 29.89 in SSW 4.9 mph 6.9 mph 86 % 0.00 in
02:26 50.3 °F 46.3 °F 29.89 in South 5.3 mph 8.1 mph 86 % 0.00 in
02:31 50.4 °F 46.4 °F 29.88 in South 5.4 mph 8.1 mph 86 % 0.00 in
02:41 50.5 °F 46.5 °F 29.88 in South 3.4 mph 5.8 mph 86 % 0.00 in
02:47 50.5 °F 46.5 °F 29.88 in South 6.7 mph 10.0 mph 86 % 0.00 in
02:57 50.6 °F 46.6 °F 29.87 in SSW 3.4 mph 9.2 mph 86 % 0.00 in
03:02 50.7 °F 46.7 °F 29.87 in SW 6.6 mph 11.5 mph 86 % 0.00 in
03:07 50.7 °F 46.7 °F 29.87 in South 6.1 mph 11.0 mph 86 % 0.00 in
03:12 50.7 °F 46.7 °F 29.87 in South 3.8 mph 7.0 mph 86 % 0.00 in
03:17 50.7 °F 46.7 °F 29.86 in South 5.5 mph 10.4 mph 86 % 0.00 in
03:22 50.7 °F 46.7 °F 29.86 in South 4.6 mph 6.9 mph 86 % 0.00 in
03:27 50.6 °F 46.6 °F 29.86 in SSW 6.2 mph 11.5 mph 86 % 0.00 in
03:32 50.7 °F 46.7 °F 29.86 in South 6.0 mph 9.2 mph 86 % 0.00 in
03:38 50.7 °F 46.7 °F 29.85 in South 5.2 mph 12.0 mph 86 % 0.00 in
03:43 50.8 °F 46.8 °F 29.85 in SSW 6.2 mph 11.5 mph 86 % 0.00 in
03:48 50.9 °F 46.9 °F 29.85 in SW 5.6 mph 9.2 mph 86 % 0.00 in
03:58 51.0 °F 47.0 °F 29.84 in SSE 7.8 mph 13.0 mph 86 % 0.00 in
04:03 51.0 °F 46.6 °F 29.84 in South 5.8 mph 10.4 mph 85 % 0.00 in
04:13 51.0 °F 47.0 °F 29.84 in South 5.3 mph 11.5 mph 86 % 0.00 in
04:18 51.0 °F 47.0 °F 29.83 in South 3.1 mph 11.5 mph 86 % 0.00 in
04:23 51.0 °F 47.0 °F 29.83 in South 5.8 mph 12.7 mph 86 % 0.00 in
04:29 51.0 °F 47.0 °F 29.82 in SW 5.8 mph 10.4 mph 86 % 0.00 in
04:34 51.0 °F 47.0 °F 29.82 in SSW 5.5 mph 11.5 mph 86 % 0.00 in
04:39 51.0 °F 47.0 °F 29.82 in SW 4.9 mph 8.1 mph 86 % 0.00 in
04:44 51.0 °F 46.6 °F 29.81 in SSW 8.7 mph 12.7 mph 85 % 0.00 in
04:49 51.1 °F 46.7 °F 29.81 in South 7.0 mph 17.0 mph 85 % 0.00 in
04:54 51.3 °F 46.9 °F 29.81 in South 7.5 mph 13.8 mph 85 % 0.00 in
04:59 51.4 °F 47.0 °F 29.81 in SSW 6.2 mph 10.4 mph 85 % 0.00 in
05:04 51.5 °F 46.8 °F 29.80 in SW 7.1 mph 11.5 mph 84 % 0.00 in
05:09 51.7 °F 47.0 °F 29.80 in SSW 5.7 mph 15.0 mph 84 % 0.00 in
05:14 51.8 °F 47.1 °F 29.80 in SW 8.5 mph 12.7 mph 84 % 0.00 in
05:20 52.0 °F 47.0 °F 29.80 in SW 6.7 mph 15.0 mph 83 % 0.00 in
05:25 52.2 °F 47.2 °F 29.80 in SSW 7.7 mph 15.0 mph 83 % 0.00 in
05:30 52.3 °F 47.3 °F 29.80 in South 9.8 mph 11.0 mph 83 % 0.00 in
05:35 52.5 °F 47.2 °F 29.80 in SSW 4.0 mph 12.7 mph 82 % 0.00 in
05:40 52.7 °F 47.4 °F 29.79 in SSW 11.0 mph 19.6 mph 82 % 0.00 in
05:45 52.8 °F 47.1 °F 29.80 in SW 10.5 mph 17.3 mph 81 % 0.00 in
05:50 53.0 °F 47.3 °F 29.80 in SSW 8.1 mph 12.0 mph 81 % 0.00 in
05:55 53.2 °F 47.5 °F 29.79 in SSW 7.2 mph 11.5 mph 81 % 0.00 in
06:00 53.4 °F 47.7 °F 29.79 in SSW 7.4 mph 13.8 mph 81 % 0.00 in
06:05 53.4 °F 47.7 °F 29.79 in South 6.3 mph 11.5 mph 81 % 0.00 in
06:11 53.4 °F 47.4 °F 29.79 in ENE 4.6 mph 13.0 mph 80 % 0.00 in
06:16 53.4 °F 47.7 °F 29.78 in SW 8.4 mph 16.0 mph 81 % 0.00 in
06:21 53.5 °F 47.8 °F 29.78 in South 7.4 mph 11.5 mph 81 % 0.00 in
06:26 53.5 °F 47.8 °F 29.78 in SSW 9.5 mph 12.7 mph 81 % 0.00 in
06:31 53.6 °F 47.9 °F 29.78 in South 4.6 mph 6.9 mph 81 % 0.00 in
06:36 53.6 °F 47.9 °F 29.77 in SSW 8.5 mph 15.0 mph 81 % 0.00 in
06:41 53.6 °F 47.9 °F 29.78 in South 7.1 mph 17.3 mph 81 % 0.00 in
06:46 53.6 °F 47.9 °F 29.77 in South 6.0 mph 10.4 mph 81 % 0.00 in
06:51 53.6 °F 48.2 °F 29.77 in SSW 6.8 mph 9.2 mph 82 % 0.00 in
06:56 53.6 °F 48.2 °F 29.77 in SSW 6.1 mph 13.0 mph 82 % 0.00 in
07:01 53.6 °F 48.2 °F 29.76 in South 6.4 mph 11.5 mph 82 % 0.00 in
07:06 53.6 °F 48.2 °F 29.77 in SW 6.9 mph 16.1 mph 82 % 0.00 in
07:12 53.7 °F 48.3 °F 29.76 in SSE 9.9 mph 13.8 mph 82 % 0.00 in
07:17 53.9 °F 48.5 °F 29.76 in South 5.1 mph 26.5 mph 82 % 0.00 in
07:22 54.1 °F 49.1 °F 29.76 in South 8.7 mph 13.8 mph 83 % 0.00 in
07:27 54.3 °F 48.9 °F 29.76 in ESE 8.2 mph 13.8 mph 82 % 0.00 in
07:32 54.5 °F 49.1 °F 29.75 in South 11.4 mph 15.0 mph 82 % 0.00 in
07:37 54.6 °F 49.2 °F 29.76 in South 12.7 mph 24.0 mph 82 % 0.00 in
07:42 54.7 °F 49.3 °F 29.76 in South 9.3 mph 13.8 mph 82 % 0.00 in
07:47 54.8 °F 49.4 °F 29.75 in ESE 5.5 mph 13.0 mph 82 % 0.00 in
07:52 55.0 °F 49.6 °F 29.75 in SSE 7.4 mph 14.0 mph 82 % 0.00 in
07:58 55.1 °F 49.7 °F 29.75 in South 7.5 mph 13.0 mph 82 % 0.00 in
08:03 55.4 °F 50.0 °F 29.75 in South 5.3 mph 18.4 mph 82 % 0.00 in
08:08 55.7 °F 50.3 °F 29.74 in South 6.3 mph 11.5 mph 82 % 0.00 in
08:13 56.0 °F 50.6 °F 29.74 in SSW 2.6 mph 9.2 mph 82 % 0.00 in
08:18 56.4 °F 51.0 °F 29.74 in SSW 6.5 mph 12.7 mph 82 % 0.00 in
08:23 56.7 °F 51.3 °F 29.74 in SSE 4.6 mph 9.2 mph 82 % 0.00 in
08:28 56.8 °F 51.4 °F 29.74 in South 7.7 mph 10.0 mph 82 % 0.00 in
08:33 56.9 °F 51.1 °F 29.74 in SSW 5.2 mph 12.7 mph 81 % 0.00 in
08:38 56.6 °F 50.8 °F 29.73 in SSW 7.9 mph 10.4 mph 81 % 0.00 in
08:43 56.4 °F 51.0 °F 29.73 in ESE 7.1 mph 12.7 mph 82 % 0.00 in
08:49 56.3 °F 50.9 °F 29.72 in SSW 6.1 mph 9.2 mph 82 % 0.00 in
08:54 56.3 °F 50.9 °F 29.73 in SSW 5.8 mph 9.2 mph 82 % 0.00 in
08:59 56.3 °F 50.9 °F 29.72 in SE 7.0 mph 16.1 mph 82 % 0.00 in
09:04 56.4 °F 51.0 °F 29.72 in SSE 4.4 mph 11.5 mph 82 % 0.00 in
09:09 56.7 °F 51.3 °F 29.71 in South 6.8 mph 11.5 mph 82 % 0.00 in
09:14 57.0 °F 51.6 °F 29.70 in SSW 7.0 mph 11.5 mph 82 % 0.00 in
09:19 57.2 °F 51.8 °F 29.70 in SSW 5.5 mph 13.8 mph 82 % 0.00 in
09:24 57.4 °F 51.9 °F 29.70 in SSE 4.7 mph 11.5 mph 82 % 0.00 in
09:29 57.6 °F 51.8 °F 29.70 in South 4.3 mph 11.5 mph 81 % 0.00 in
09:34 57.8 °F 52.0 °F 29.69 in South 10.0 mph 19.6 mph 81 % 0.00 in
09:40 58.0 °F 52.2 °F 29.69 in SE 6.9 mph 15.0 mph 81 % 0.00 in
09:45 58.2 °F 52.7 °F 29.69 in SSW 4.7 mph 11.5 mph 82 % 0.00 in
09:50 58.5 °F 52.7 °F 29.69 in South 8.9 mph 18.4 mph 81 % 0.00 in
09:55 58.9 °F 53.1 °F 29.68 in South 6.1 mph 10.4 mph 81 % 0.00 in
10:00 59.1 °F 52.9 °F 29.68 in South 7.9 mph 15.0 mph 80 % 0.00 in
10:05 59.3 °F 52.8 °F 29.67 in SSW 7.8 mph 13.8 mph 79 % 0.00 in
10:10 59.6 °F 53.4 °F 29.67 in SW 7.6 mph 13.0 mph 80 % 0.00 in
10:15 59.5 °F 52.6 °F 29.67 in South 6.7 mph 10.4 mph 78 % 0.00 in
10:20 59.1 °F 52.6 °F 29.67 in South 5.5 mph 9.2 mph 79 % 0.00 in
10:25 58.9 °F 52.7 °F 29.66 in SSW 5.6 mph 16.1 mph 80 % 0.00 in
10:31 58.6 °F 52.8 °F 29.66 in SSE 4.4 mph 11.0 mph 81 % 0.00 in
10:36 58.2 °F 52.7 °F 29.66 in South 12.2 mph 15.0 mph 82 % 0.00 in
10:46 57.2 °F 53.0 °F 29.64 in South 3.7 mph 5.8 mph 86 % 0.00 in
10:51 57.1 °F 53.3 °F 29.64 in South 7.7 mph 19.6 mph 87 % 0.00 in
10:56 56.9 °F 53.1 °F 29.64 in SSE 7.9 mph 12.7 mph 87 % 0.00 in
11:01 56.7 °F 53.5 °F 29.63 in SSE 9.3 mph 15.0 mph 89 % 0.00 in
11:06 56.3 °F 53.4 °F 29.62 in South 7.7 mph 11.5 mph 90 % 0.00 in
11:16 56.2 °F 53.9 °F 29.62 in SSE 4.6 mph 11.5 mph 92 % 0.01 in
11:22 56.0 °F 54.0 °F 29.61 in SE 7.5 mph 14.0 mph 93 % 0.01 in
11:27 56.0 °F 54.0 °F 29.61 in South 6.9 mph 13.8 mph 93 % 0.01 in
11:32 55.9 °F 53.9 °F 29.60 in South 7.0 mph 15.0 mph 93 % 0.01 in
11:37 55.8 °F 53.8 °F 29.60 in South 9.5 mph 16.1 mph 93 % 0.01 in
11:42 55.7 °F 53.7 °F 29.59 in South 9.1 mph 12.7 mph 93 % 0.01 in
11:47 55.7 °F 53.7 °F 29.58 in ESE 6.8 mph 11.5 mph 93 % 0.01 in
11:52 55.6 °F 53.9 °F 29.58 in SSW 6.4 mph 11.5 mph 94 % 0.01 in
11:57 55.5 °F 53.8 °F 29.58 in South 8.8 mph 20.7 mph 94 % 0.01 in
12:02 55.6 °F 53.9 °F 29.57 in SSW 9.2 mph 13.8 mph 94 % 0.01 in
12:07 55.7 °F 53.7 °F 29.56 in SSW 7.0 mph 15.0 mph 93 % 0.01 in
12:18 56.2 °F 54.2 °F 29.55 in SSE 6.3 mph 11.5 mph 93 % 0.00 in
12:23 56.4 °F 54.4 °F 29.54 in SSE 7.6 mph 14.0 mph 93 % 0.00 in
12:28 56.5 °F 54.2 °F 29.53 in South 8.2 mph 17.3 mph 92 % 0.00 in
12:33 56.5 °F 54.2 °F 29.53 in SE 14.2 mph 22.0 mph 92 % 0.00 in
12:43 56.2 °F 54.5 °F 29.53 in SSE 10.6 mph 18.0 mph 94 % 0.02 in
12:48 56.1 °F 54.4 °F 29.52 in SE 7.2 mph 23.0 mph 94 % 0.02 in
12:53 56.2 °F 54.5 °F 29.51 in SSE 9.5 mph 21.9 mph 94 % 0.02 in
12:58 56.5 °F 54.8 °F 29.50 in South 10.8 mph 17.3 mph 94 % 0.02 in
13:04 56.6 °F 54.9 °F 29.50 in SSE 5.4 mph 11.5 mph 94 % 0.02 in
13:09 57.2 °F 55.8 °F 29.49 in South 9.4 mph 13.8 mph 95 % 0.02 in
13:14 57.3 °F 55.6 °F 29.48 in ESE 14.2 mph 26.5 mph 94 % 0.02 in
13:19 57.3 °F 55.3 °F 29.48 in South 12.0 mph 25.3 mph 93 % 0.02 in
13:24 57.2 °F 55.2 °F 29.47 in SW 11.4 mph 21.9 mph 93 % 0.02 in
13:29 57.0 °F 54.7 °F 29.48 in South 6.8 mph 15.0 mph 92 % 0.02 in
13:34 56.7 °F 54.7 °F 29.47 in SSE 6.6 mph 19.0 mph 93 % 0.04 in
13:39 56.4 °F 54.4 °F 29.46 in South 9.8 mph 18.4 mph 93 % 0.04 in
13:44 56.2 °F 54.5 °F 29.45 in South 11.2 mph 17.3 mph 94 % 0.06 in
13:49 56.1 °F 54.4 °F 29.45 in SE 7.7 mph 19.6 mph 94 % 0.08 in
13:55 56.0 °F 54.3 °F 29.44 in SE 10.9 mph 19.6 mph 94 % 0.08 in
14:00 56.0 °F 54.3 °F 29.43 in South 7.3 mph 12.7 mph 94 % 0.08 in
14:10 55.8 °F 54.1 °F 29.42 in SSE 8.4 mph 26.5 mph 94 % 0.08 in
14:15 55.8 °F 54.1 °F 29.41 in SE 6.8 mph 16.1 mph 94 % 0.08 in
14:20 55.9 °F 54.2 °F 29.41 in South 7.5 mph 19.6 mph 94 % 0.09 in
14:25 55.8 °F 54.1 °F 29.40 in South 8.9 mph 16.1 mph 94 % 0.10 in
14:30 55.9 °F 54.2 °F 29.41 in SSE 11.6 mph 23.0 mph 94 % 0.12 in
14:35 56.0 °F 54.3 °F 29.39 in South 12.8 mph 20.7 mph 94 % 0.11 in
14:46 56.4 °F 55.0 °F 29.38 in South 12.4 mph 25.3 mph 95 % 0.08 in
14:51 56.4 °F 55.0 °F 29.38 in South 10.7 mph 18.4 mph 95 % 0.07 in
14:56 56.5 °F 55.1 °F 29.38 in South 10.4 mph 16.1 mph 95 % 0.08 in
15:01 56.6 °F 54.9 °F 29.38 in SE 9.3 mph 13.8 mph 94 % 0.08 in
15:06 56.5 °F 54.8 °F 29.38 in SSW 9.3 mph 17.0 mph 94 % 0.08 in
15:11 56.6 °F 54.9 °F 29.38 in South 11.0 mph 21.9 mph 94 % 0.08 in
15:21 56.7 °F 54.7 °F 29.38 in SSE 13.4 mph 21.0 mph 93 % 0.07 in
15:26 56.7 °F 54.7 °F 29.38 in South 6.9 mph 17.3 mph 93 % 0.06 in
15:31 56.5 °F 54.2 °F 29.37 in SSW 12.8 mph 18.4 mph 92 % 0.03 in
15:37 56.4 °F 54.1 °F 29.37 in SSW 12.6 mph 19.6 mph 92 % 0.03 in
15:42 56.4 °F 54.1 °F 29.37 in SE 10.4 mph 17.3 mph 92 % 0.03 in
15:47 56.3 °F 54.0 °F 29.37 in SSE 6.3 mph 11.5 mph 92 % 0.02 in
15:57 56.5 °F 53.9 °F 29.36 in South 8.0 mph 13.0 mph 91 % 0.00 in
16:07 56.6 °F 54.0 °F 29.36 in South 5.6 mph 9.2 mph 91 % 0.00 in
16:12 56.7 °F 53.8 °F 29.36 in SW 7.6 mph 8.1 mph 90 % 0.00 in
16:17 56.8 °F 53.9 °F 29.36 in SSW 6.5 mph 9.2 mph 90 % 0.00 in
16:22 56.8 °F 53.6 °F 29.36 in South 10.1 mph 18.0 mph 89 % 0.00 in
16:33 57.2 °F 54.0 °F 29.36 in South 7.7 mph 11.5 mph 89 % 0.00 in
16:38 57.2 °F 53.7 °F 29.35 in SSE 6.0 mph 13.8 mph 88 % 0.00 in
16:43 57.1 °F 53.6 °F 29.35 in South 6.7 mph 11.5 mph 88 % 0.00 in
16:48 56.8 °F 53.0 °F 29.36 in SSE 5.4 mph 11.5 mph 87 % 0.00 in
16:53 56.7 °F 52.9 °F 29.35 in SSW 10.6 mph 17.3 mph 87 % 0.00 in
16:58 56.6 °F 52.8 °F 29.36 in WSW 7.5 mph 8.1 mph 87 % 0.00 in
17:03 56.6 °F 52.8 °F 29.36 in SSW 4.9 mph 11.5 mph 87 % 0.00 in
17:08 56.5 °F 52.7 °F 29.36 in SW 5.9 mph 10.4 mph 87 % 0.00 in
17:13 56.6 °F 52.8 °F 29.36 in SSW 6.4 mph 11.5 mph 87 % 0.00 in
17:19 56.6 °F 52.5 °F 29.36 in South 4.3 mph 8.1 mph 86 % 0.00 in
17:24 56.6 °F 52.5 °F 29.37 in SSW 4.3 mph 11.5 mph 86 % 0.00 in
17:29 56.6 °F 52.5 °F 29.37 in South 8.0 mph 12.7 mph 86 % 0.00 in
17:34 56.6 °F 52.1 °F 29.37 in SSW 6.6 mph 11.5 mph 85 % 0.00 in
17:44 56.7 °F 52.2 °F 29.37 in WSW 3.8 mph 6.9 mph 85 % 0.00 in
17:49 56.8 °F 52.0 °F 29.36 in SSW 5.4 mph 7.0 mph 84 % 0.00 in
17:54 56.7 °F 51.9 °F 29.36 in WSW 5.5 mph 12.0 mph 84 % 0.00 in
17:59 56.7 °F 51.9 °F 29.36 in SW 5.5 mph 9.0 mph 84 % 0.00 in
18:04 56.7 °F 51.9 °F 29.36 in South 6.0 mph 9.2 mph 84 % 0.00 in
18:10 56.7 °F 51.6 °F 29.37 in SW 5.5 mph 10.4 mph 83 % 0.00 in
18:15 56.7 °F 51.3 °F 29.37 in SW 2.5 mph 6.9 mph 82 % 0.00 in
18:20 56.6 °F 51.2 °F 29.37 in South 5.2 mph 6.9 mph 82 % 0.00 in
18:25 56.5 °F 51.1 °F 29.37 in SSW 5.1 mph 11.5 mph 82 % 0.00 in
18:30 56.3 °F 50.9 °F 29.37 in South 5.7 mph 9.2 mph 82 % 0.00 in
18:35 56.2 °F 50.8 °F 29.37 in SSW 1.8 mph 3.5 mph 82 % 0.00 in
18:40 56.0 °F 50.6 °F 29.37 in South 1.5 mph 4.6 mph 82 % 0.00 in
18:45 55.9 °F 50.5 °F 29.37 in SSW 5.3 mph 8.1 mph 82 % 0.00 in
18:51 55.8 °F 50.4 °F 29.37 in South 5.5 mph 8.1 mph 82 % 0.00 in
18:56 55.6 °F 50.2 °F 29.37 in South 3.0 mph 6.9 mph 82 % 0.00 in
19:01 55.5 °F 50.1 °F 29.37 in SSW 2.4 mph 5.8 mph 82 % 0.00 in
19:06 55.4 °F 50.0 °F 29.36 in SSW 3.2 mph 5.8 mph 82 % 0.00 in
19:11 55.3 °F 49.9 °F 29.36 in SSW 3.2 mph 6.9 mph 82 % 0.00 in
19:16 55.0 °F 49.6 °F 29.37 in SSW 1.9 mph 4.6 mph 82 % 0.00 in
19:21 54.9 °F 49.5 °F 29.37 in SSW 0.8 mph 2.3 mph 82 % 0.00 in
19:26 54.7 °F 49.3 °F 29.36 in SSW 0.3 mph 1.2 mph 82 % 0.00 in
19:31 54.5 °F 49.4 °F 29.37 in SW 1.2 mph 2.3 mph 83 % 0.00 in
19:36 54.3 °F 49.2 °F 29.37 in South 1.8 mph 3.0 mph 83 % 0.00 in
19:42 54.1 °F 49.1 °F 29.37 in SSW 0.7 mph 2.0 mph 83 % 0.00 in
19:47 53.9 °F 49.2 °F 29.37 in South 2.5 mph 4.6 mph 84 % 0.00 in
19:52 53.6 °F 48.9 °F 29.38 in SSW 0.4 mph 2.3 mph 84 % 0.00 in
19:57 53.3 °F 48.9 °F 29.37 in SSW 1.8 mph 3.5 mph 85 % 0.00 in
20:02 53.1 °F 48.7 °F 29.38 in SSW 1.7 mph 3.5 mph 85 % 0.00 in
20:07 52.8 °F 48.7 °F 29.38 in SW 2.0 mph 3.5 mph 86 % 0.00 in
20:12 52.6 °F 48.5 °F 29.39 in SSW 2.1 mph 3.5 mph 86 % 0.00 in
20:17 52.4 °F 48.3 °F 29.39 in SW 0.5 mph 2.3 mph 86 % 0.00 in
20:22 52.2 °F 48.1 °F 29.39 in SSW 3.0 mph 3.5 mph 86 % 0.00 in
20:27 52.0 °F 47.9 °F 29.40 in SW 2.5 mph 3.5 mph 86 % 0.00 in
20:33 51.7 °F 48.0 °F 29.40 in SW 2.6 mph 3.5 mph 87 % 0.00 in
20:38 51.6 °F 47.9 °F 29.41 in WSW 3.0 mph 5.8 mph 87 % 0.00 in
20:43 51.4 °F 47.7 °F 29.41 in SW 3.1 mph 5.8 mph 87 % 0.00 in
20:48 51.2 °F 47.5 °F 29.41 in SSW 3.0 mph 4.6 mph 87 % 0.00 in
20:53 51.1 °F 47.4 °F 29.41 in SW 2.3 mph 3.5 mph 87 % 0.00 in
20:58 50.9 °F 47.5 °F 29.41 in SSW 3.2 mph 5.0 mph 88 % 0.00 in
21:03 50.8 °F 47.4 °F 29.41 in SSW 0.6 mph 1.2 mph 88 % 0.00 in
21:13 50.6 °F 47.2 °F 29.42 in South 1.1 mph 2.0 mph 88 % 0.00 in
21:18 50.4 °F 47.0 °F 29.42 in South 0.6 mph 3.5 mph 88 % 0.00 in
21:24 50.4 °F 47.0 °F 29.43 in SW 1.9 mph 4.6 mph 88 % 0.00 in
21:29 50.2 °F 46.8 °F 29.43 in SSW 1.8 mph 3.5 mph 88 % 0.00 in
21:34 50.0 °F 46.6 °F 29.43 in SW 3.6 mph 4.6 mph 88 % 0.00 in
21:39 49.9 °F 46.5 °F 29.43 in SSW 1.2 mph 3.5 mph 88 % 0.00 in
21:44 49.9 °F 46.5 °F 29.43 in SW 1.7 mph 3.5 mph 88 % 0.00 in
21:49 49.8 °F 46.4 °F 29.43 in SW 0.1 mph 2.3 mph 88 % 0.00 in
21:54 49.8 °F 46.4 °F 29.43 in SW 0.1 mph 1.2 mph 88 % 0.00 in
21:59 49.8 °F 46.1 °F 29.43 in SW 0.2 mph 2.3 mph 87 % 0.00 in
22:04 49.7 °F 46.0 °F 29.43 in SW 0.6 mph 3.5 mph 87 % 0.00 in
22:09 49.7 °F 46.0 °F 29.43 in SW 0.9 mph 3.5 mph 87 % 0.00 in
22:15 49.6 °F 45.9 °F 29.44 in SW 1.1 mph 2.3 mph 87 % 0.00 in
22:20 49.5 °F 45.8 °F 29.44 in South 2.8 mph 4.0 mph 87 % 0.00 in
22:25 49.4 °F 45.7 °F 29.44 in South 3.0 mph 4.0 mph 87 % 0.00 in
22:30 49.4 °F 45.7 °F 29.44 in SSW 2.7 mph 5.0 mph 87 % 0.00 in
22:35 49.3 °F 45.3 °F 29.44 in SSW 3.1 mph 3.5 mph 86 % 0.00 in
22:40 49.4 °F 45.4 °F 29.44 in SSW 2.8 mph 4.6 mph 86 % 0.00 in
22:45 49.4 °F 45.1 °F 29.43 in SSW 2.0 mph 3.5 mph 85 % 0.00 in
22:50 49.6 °F 45.0 °F 29.43 in SSW 3.5 mph 5.8 mph 84 % 0.00 in
22:55 49.8 °F 44.8 °F 29.44 in SSW 2.7 mph 4.6 mph 83 % 0.00 in
23:00 50.0 °F 44.7 °F 29.43 in SSW 2.4 mph 6.9 mph 82 % 0.00 in
23:06 50.2 °F 44.6 °F 29.43 in SW 3.0 mph 4.6 mph 81 % 0.00 in
23:11 50.4 °F 44.8 °F 29.43 in SSE 2.7 mph 6.9 mph 81 % 0.00 in
23:16 50.5 °F 44.9 °F 29.43 in South 4.1 mph 6.9 mph 81 % 0.00 in
23:21 50.7 °F 44.8 °F 29.42 in South 3.9 mph 5.8 mph 80 % 0.00 in
23:26 50.8 °F 44.9 °F 29.42 in SSW 4.6 mph 10.0 mph 80 % 0.00 in
23:31 50.8 °F 44.9 °F 29.42 in South 4.6 mph 9.2 mph 80 % 0.00 in
23:36 50.8 °F 44.9 °F 29.42 in SW 4.4 mph 6.9 mph 80 % 0.00 in
23:41 50.8 °F 44.9 °F 29.42 in SW 4.8 mph 5.8 mph 80 % 0.00 in
23:46 50.7 °F 44.8 °F 29.43 in South 5.8 mph 11.0 mph 80 % 0.00 in
23:51 50.6 °F 44.7 °F 29.43 in SSW 4.1 mph 10.4 mph 80 % 0.00 in
23:57 50.6 °F 44.7 °F 29.42 in SW 3.8 mph 8.1 mph 80 % 0.00 in
Crab Meadow Weather
Compliments of Weather Underground - 2.75 mb

Script developed by  Jim McMurry - jmcmurry@mwt.net Adapted for the template by  Wim van der Kuil - Leuven-Template.eu

Recycling: Every ton of mixed paper recycled can save the energy equivalent of 185 gallons of gas.